Simultaneous Nadir Overpasses (SNOs) Predictions

Prediction of SNOs between NOAA-20 and LANDSAT-8 Satellite Orbit:

Table of predicted SNOs for the next 14.0 days since TLE Epoch: 10/9/2018
Index Date (NOAA-20) Time (NOAA-20) Lat,Lon (NOAA-20) SZA (NOAA-20 ) Date (LANDSAT-8) Time (LANDSAT-8) Lat,Lon (LANDSAT-8) SZA (LANDSAT-8 ) Distance(km) Time Diff (sec)
1 10/09/2018 15:05:50 70.04, -50.24 76.33 10/09/2018 15:06:22 70.06, -50.23 76.36 2.84 32
2 10/09/2018 15:56:32 -69.95, 117.22 103.75 10/09/2018 15:55:52 -69.96, 117.25 103.74 1.76 40
3 10/12/2018 06:32:08 -70.53,-102.54 102.18 10/12/2018 06:33:18 -70.45,-101.42 102.26 42.38 70
4 10/12/2018 07:22:44 70.00, 65.60 77.31 10/12/2018 07:22:51 70.01, 65.58 77.31 1.26 7
5 10/12/2018 08:13:26 -69.91,-126.94 102.78 10/12/2018 08:12:21 -69.91,-126.93 102.78 0.64 65
6 10/14/2018 22:48:54 -70.08, 13.94 101.64 10/14/2018 22:49:52 -70.10, 13.95 101.62 2.50 58
7 10/14/2018 23:39:38 69.97,-178.58 78.27 10/14/2018 23:39:19 69.98,-178.56 78.29 1.80 19
8 10/15/2018 00:30:09 -69.29, -10.27 102.40 10/15/2018 00:28:59 -69.33, -11.82 102.36 60.90 70
9 10/17/2018 15:05:48 -70.05, 129.75 100.68 10/17/2018 15:06:20 -70.05, 129.77 100.68 0.86 32
10 10/17/2018 15:56:32 69.95, -62.77 79.23 10/17/2018 15:55:47 69.93, -62.75 79.22 2.14 45
11 10/20/2018 06:32:03 70.35, 77.76 80.58 10/20/2018 06:33:14 70.23, 78.29 80.46 23.88 71
12 10/20/2018 07:22:41 -70.04,-114.44 99.72 10/20/2018 07:22:46 -70.02,-114.37 99.74 3.16 5
13 10/20/2018 08:13:24 69.88, 53.10 80.13 10/20/2018 08:12:13 69.90, 53.10 80.15 2.47 71
14 10/22/2018 22:48:52 70.07,-166.04 81.26 10/22/2018 22:49:43 70.06,-166.05 81.25 1.28 51
15 10/22/2018 23:39:34 -69.97, 1.43 98.84 10/22/2018 23:39:13 -69.97, 1.45 98.85 1.11 21




NCC Satellite Simultaneous Nadir Overpasses (SNOs) Prediction Service
